ATLAS 5 CENTAUR DEB, 43960

Orbit data source: Space-Track

ATLAS 5 CENTAUR DEB, 43960 is space debris in HEO originally from a launch on Wed, 17 Sep 2014 UTC launched from the Air Force Eastern Test Range (AFETR). Debris objects in space refer to the collection of defunct objects orbiting the Earth. Examples of debris include non-operational satellites, rocket bodies, and fragments generated from explosions, collisions, or faulty payload assembly.

Loading next visibility...
Identifier
43960, 2014-055P
Orbit
HEO
Last TLE update
2 days ago
Origin
Manufacturer
Unknown
Mission
Spacecraft
Bus & Motor
Unknown
Mass
Unknown
Launch date (UTC)
2014-09-17 (11 years ago)
Launch vehicle
Unknown
Launch site
Air Force Eastern Test Range (AFETR)
Object type
Payload
Rocket body
Debris
Shape & HBR
Unknown
Radar Cross Section
Small (<0.1 m²)

Expand to show TLE details & history

TLE from 2 days ago
0 ATLAS 5 CENTAUR DEB
1 43960U 14055P   25127.56763405 -.00000011  00000-0  00000-0 0  9993
2 43960  19.4158 178.7760 5143496 101.9946 317.7590  1.81608263 44274
Epoch: 2025-05-07T13:37Z
Definitive object data (Epoch: 2025-05-07T13:37:23.581Z)
Latitude
-0.00006°
Longitude
108.88251°
Altitude
16,956.897 km
Speed
4.485 km/s
True Right ascension
11h 55m 31s
True Declination
0° 00' 00"
Sunlit
Object was in daylight at TLE epoch
Visualization TLE readout
Latitude
17.71755°
Longitude
173.40656°
Altitude
8,378.263 km
Speed
6.323 km/s
Apparent Right ascension
17h 01m 43s
Apparent Declination
2° 22' 31"
Sunlit
Object is in daylight
Visualization observer readout
Local Sidereal Time
14:34:49
Azimuth
128.896° SE
Elevation
39.851°
Doppler factor
1
Orbital elements
Apogee altitude
36,598.847 km
Perigee altitude
7,404.539 km
Semi-major axis
28,379.83 km
Eccentricity
0.5143496
Inclination
19.4158°
RAAN
178.776°
Arg. of periapsis
101.9946°
True anomaly
258.01306°
Mean anomaly
317.759°
Eccentric anomaly
290.08037°
Mean motion
0.45397 °/min
BSTAR
Unknown
Orbital period
793 mins
Loading maneuver chart data...
Loading SW <> Apogee altitude chart data...

ATLAS 5 CENTAUR DEB Visibility forecast

Observer location: undefined°, undefined°

Span
Click to sort rows by Start time (UTC) header in descending order
Start Az.
Max El. time (UTC)
Max El. Az.
Max El.
End time (UTC)
End Az.
22 mins2025-05-09 06:25:59.224Z128.958° SE2025-05-09 06:25:59.224Z128.958° SE32.627°2025-05-09 06:47:59.224Z96.632° ESE
|